Location: Unspecified
(50.7693°N, 0.0000°E)
Time: 03:30:26
(UTC+00:00)

A-11 Canister half - Pass Details

Date: 19 June 2019
Orbit: 1526 x 1683 km, 47.3° (Epoch: 17 July)

Event Time Altitude Azimuth Distance (km) Brightness Sun altitude
Rises 07:57:10 0° 261° (W) 4,700 11.1 36.1°
Reaches altitude 10° 08:00:13 10° 260° (W) 3,706 10.6 36.6°
Maximum altitude 08:09:29 73° 178° (S) 1,587 9.8 38.0°
Drops below altitude 10° 08:18:46 10° 97° (E) 3,711 12.3 39.5°
Sets 08:21:50 0° 95° (E) 4,706 12.4 39.9°
